Vertical_Velocity
1 2 1 4 8 13 -2 55 12 12 -3 -1 7 7 -9 -4 1 -0 -0 -1 -1 -1 1 -2 -1 0 2 4 2 -0 -1 3 0 0 1 0 0 -0 0 0 -0 0 0
-3 1 1 5 -11 -1 -7 118 15 58 0 1 -5 7 1 1 9 6 6 2 1 -1 -0 1 -1 2 -0 -1 2 2 4 -1 1 2 1 0 0 0 0 -0 1 1 0
-4 3 2 5 6 3 34 -0 23 45 41 9 3 14 12 5 3 -1 0 -0 -1 -1 -0 1 -0 0 0 0 3 2 2 3 2 0 1 0 -1 0 -0 -0 0 0 1
4 2 2 2 -17 -5 2 -12 -2 1 -18 13 6 -6 8 -2 -4 5 2 0 0 -3 -2 2 0 2 0 -2 0 1 1 0 2 0 0 -2 3 1 -4 0 -0 0 1
6 1 2 -8 -13 11 -3 33 -1 -0 2 22 3 -0 11 6 6 5 2 3 2 -0 0 1 1 -1 -1 -1 -0 -1 -0 0 -1 1 2 1 1 -1 4 2 1 -0 1
4 -7 3 2 1 2 14 -4 13 16 -3 17 4 11 3 -1 -1 -0 -1 -1 0 2 -2 -1 -0 0 -0 1 0 1 -0 2 2 -0 2 4 1 4 3 2 0 -1 -0
1 3 1 -8 5 2 -4 -5 7 11 -21 -7 -1 5 1 -8 -0 1 1 -1 0 -4 -4 -4 -5 -2 0 1 1 -0 0 2 1 2 -0 1 2 -1 -1 -2 -1 1 -0
2 -4 -3 8 2 -2 -8 -10 22 2 16 -15 -15 -8 5 2 -2 -1 0 3 3 5 2 2 2 1 -0 2 1 1 2 1 0 1 -3 1 1 -0 -0 1 0 -0 1
3 -4 -0 2 -5 4 -7 -5 4 -8 -8 -4 -9 -15 37 -2 -4 -0 -0 -0 3 2 7 5 0 2 2 1 -0 -2 2 0 1 3 -1 -1 1 -1 -1 0 -1 1 1
1 5 1 -2 9 9 -1 -8 5 14 12 -13 -22 7 3 1 -4 6 -3 0 2 -1 2 2 2 2 3 2 -3 -0 1 -1 3 2 0 -1 0 0 -0 -1 -0 -1 -1
1 2 -2 -4 -2 2 3 22 12 -1 19 6 16 0 9 2 -10 4 -2 0 5 1 4 1 1 3 2 1 -2 -2 1 0 0 -0 -2 1 1 1 -0 -1 0 -1 -1
-8 -1 6 5 -1 5 -0 21 -11 7 -19 -6 1 -3 7 -12 23 6 0 -3 -0 2 4 5 1 4 2 1 3 -1 -1 -1 -2 0 -1 -0 -1 -1 0 -2 2 1 0
-7 -5 -1 4 0 -5 5 9 7 -13 15 4 -2 2 11 -3 13 4 10 6 3 2 1 6 3 0 1 -2 -2 -0 1 2 0 3 2 3 2 1 -0 1 1 1 -1
9 3 -4 -7 -4 2 4 2 4 -0 -5 6 15 -3 14 10 -1 8 -43 -9 18 -10 -2 6 5 -0 2 -2 1 0 0 4 1 1 3 1 -0 -0 1 1 2 2 1
-2 -3 -3 -4 -2 6 2 0 3 12 0 13 -5 -8 -6 -7 18 -2 17 -7 -10 -0 -4 7 4 5 3 -0 -2 -1 -5 -2 0 0 2 -0 1 1 4 1 1 3 -0
-11 1 3 -0 1 -4 -1 -7 -2 1 5 3 -2 -13 11 3 -2 6 -1 16 -7 -0 66 -11 -1 3 6 2 -1 -4 -3 -1 -1 -3 0 0 3 -1 2 -0 1 1 0
-1 -4 -3 3 -1 -0 -9 -7 -5 3 8 -0 -7 3 2 2 1 -10 10 1 19 4 -8 35 14 20 33 -3 -1 3 3 -0 3 -2 1 0 -0 1 0 -2 3 1 -2
-0 1 0 -2 -4 0 1 5 -3 0 4 2 3 3 3 -4 -3 -7 -4 -22 -15 16 11 8 4 6 -4 2 -9 13 -3 -2 2 1 3 0 0 2 0 -2 3 -1 -1
-5 -6 -4 -3 0 -3 -1 0 -2 0 0 3 -2 -3 -3 -3 -2 -1 1 -2 -2 2 -3 1 -8 -4 -14 -14 13 4 3 -2 -7 3 2 -0 -2 3 1 4 1 2 -1
-1 -1 -1 -4 -2 -12 -2 -3 -3 6 1 -4 2 -0 1 -1 -1 1 3 -1 -4 10 3 -14 -17 12 -4 -4 0 32 9 11 -4 -9 2 -0 -2 0 3 -0 -4 11 -2
1 0 -5 1 4 -0 -0 2 -2 -1 -0 -5 -1 -0 2 3 3 2 -0 0 -0 -2 -1 -2 -3 -10 -4 8 4 -4 4 -6 -1 1 -10 6 -3 -1 1 3 -2 -7 9
-3 -2 1 -1 -1 -6 1 4 -1 0 -3 -1 3 -1 1 3 2 1 1 1 -2 -0 -1 8 1 9 5 -10 -2 -15 -5 1 2 1 -2 -7 -7 -3 1 11 12 8 -9
-2 -2 -6 -8 -9 -8 -5 5 2 3 1 0 1 1 0 3 3 3 2 0 1 2 2 2 0 -3 6 -2 -4 -3 -1 -1 24 19 7 7 4 13 4 -1 -5 14 65
-3 -2 -0 2 1 -1 -0 -2 -2 -5 -2 0 3 3 -0 2 2 2 3 3 4 1 2 -0 -2 -4 2 1 1 -3 -1 4 1 -3 2 -4 -8 4 8 14 -2 -6 20
-1 -0 1 2 -0 1 -1 -1 -3 -0 0 2 4 -0 -0 -2 1 1 1 2 4 4 5 5 1 0 4 -0 0 3 -4 -1 -0 -4 -0 -3 3 2 -2 -3 15 7 2
-0 -0 -1 -0 -3 -2 -1 0 -1 1 -2 3 2 -2 1 0 0 1 1 1 0 -0 2 0 2 1 -3 -2 0 2 3 5 3 6 1 -2 3 6 13 6 5 8 13
Height
2999 3003 3008 3016 3024 3031 3040 3044 3054 3059 3067 3073 3082 3089 3096 3103 3110 3115 3121 3125 3130 3135 3140 3146 3151 3155 3160 3164 3169 3172 3174 3178 3181 3183 3186 3189 3191 3194 3196 3198 3200 3202 3204
2989 2995 3001 3007 3015 3023 3027 3015 3030 3039 3056 3064 3074 3083 3091 3099 3106 3111 3115 3118 3124 3130 3135 3141 3147 3152 3156 3160 3163 3168 3172 3175 3178 3182 3185 3188 3191 3193 3195 3197 3199 3200 3202
2984 2989 2995 3000 3006 3015 3014 3013 3019 3013 3043 3059 3066 3075 3083 3091 3095 3100 3107 3114 3119 3125 3131 3136 3142 3148 3153 3157 3160 3165 3169 3173 3176 3179 3183 3186 3189 3191 3194 3196 3198 3200 3201
2977 2984 2989 2993 3001 3004 3007 3011 3017 3023 3038 3049 3056 3065 3074 3081 3090 3099 3106 3110 3115 3121 3127 3132 3137 3143 3148 3153 3157 3161 3165 3169 3173 3177 3181 3183 3188 3190 3192 3195 3197 3198 3199
2972 2980 2984 2987 2991 2998 3003 3008 3023 3023 3034 3039 3047 3059 3067 3076 3085 3093 3098 3102 3109 3114 3121 3126 3132 3137 3143 3149 3153 3157 3161 3165 3170 3174 3178 3181 3184 3188 3192 3194 3195 3197 3198
2969 2976 2979 2983 2984 2990 2996 3003 3015 3021 3016 3027 3042 3052 3060 3068 3076 3084 3091 3097 3103 3109 3115 3121 3127 3133 3138 3144 3149 3153 3157 3161 3166 3169 3174 3179 3183 3186 3189 3191 3193 3194 3195
2966 2971 2975 2978 2981 2985 2991 2997 3007 3014 3019 3029 3034 3045 3053 3061 3070 3078 3086 3092 3097 3101 3109 3116 3122 3128 3134 3139 3144 3148 3152 3157 3161 3165 3170 3175 3179 3182 3185 3187 3189 3192 3193
2967 2969 2973 2975 2976 2980 2986 2995 2999 3012 3018 3025 3031 3040 3048 3055 3062 3071 3080 3087 3093 3098 3106 3111 3117 3122 3127 3133 3138 3142 3148 3153 3157 3161 3164 3170 3174 3177 3180 3183 3186 3188 3190
2968 2968 2970 2971 2974 2977 2981 2986 2993 3003 3010 3017 3021 3038 3040 3047 3054 3062 3071 3080 3087 3093 3099 3105 3112 3116 3121 3127 3132 3138 3143 3148 3152 3157 3160 3165 3170 3173 3176 3179 3181 3184 3186
2966 2966 2965 2968 2970 2972 2975 2979 2986 2994 2998 3008 3019 3027 3034 3038 3047 3055 3062 3071 3080 3086 3093 3099 3105 3110 3116 3121 3126 3131 3137 3142 3147 3151 3156 3160 3164 3168 3172 3174 3177 3180 3182
2965 2965 2966 2969 2967 2968 2973 2973 2979 2985 2994 3007 3008 3018 3026 3031 3040 3047 3056 3064 3073 3079 3086 3093 3099 3105 3110 3116 3120 3125 3131 3136 3141 3146 3151 3155 3159 3163 3167 3170 3173 3175 3178
2962 2961 2961 2962 2967 2970 2971 2968 2976 2979 2985 2995 3001 3007 3012 3022 3033 3039 3047 3056 3064 3071 3079 3086 3092 3098 3104 3109 3114 3118 3125 3130 3135 3140 3145 3150 3154 3158 3161 3165 3168 3170 3172
2966 2965 2963 2961 2962 2965 2967 2967 2971 2980 2982 2990 2996 3002 3008 3016 3020 3032 3038 3046 3056 3063 3070 3077 3083 3089 3095 3101 3107 3113 3118 3123 3129 3133 3139 3144 3147 3151 3155 3159 3162 3164 3166
2959 2958 2958 2959 2960 2963 2963 2965 2969 2977 2982 2984 2987 2994 3002 3008 3017 3023 3030 3038 3045 3056 3063 3068 3074 3079 3087 3093 3100 3105 3109 3115 3121 3126 3132 3136 3140 3145 3150 3153 3156 3158 3160
2960 2958 2958 2958 2958 2959 2959 2962 2967 2970 2976 2977 2980 2989 2997 3003 3008 3015 3023 3027 3036 3044 3053 3060 3066 3071 3076 3082 3089 3096 3101 3107 3113 3117 3123 3127 3133 3138 3142 3145 3149 3151 3153
2961 2959 2956 2956 2954 2955 2956 2960 2964 2968 2971 2975 2981 2989 2994 2998 3003 3008 3013 3019 3028 3031 3033 3050 3055 3062 3066 3072 3079 3086 3092 3098 3103 3108 3114 3119 3124 3129 3133 3137 3140 3143 3145
2960 2957 2955 2953 2952 2952 2955 2958 2962 2965 2968 2972 2979 2984 2988 2992 2993 3000 3005 3009 3017 3022 3028 3031 3039 3047 3054 3058 3066 3076 3081 3087 3093 3099 3104 3109 3115 3120 3125 3129 3132 3134 3137
2956 2952 2949 2949 2950 2950 2953 2955 2957 2960 2963 2966 2970 2974 2979 2983 2987 2994 2999 3006 3010 3018 3021 3021 3027 3030 3038 3046 3056 3064 3071 3074 3080 3088 3093 3099 3105 3110 3115 3120 3122 3125 3128
2953 2952 2950 2949 2949 2949 2950 2950 2951 2953 2956 2958 2961 2965 2971 2978 2983 2987 2992 2999 3003 3008 3013 3014 3016 3022 3028 3035 3040 3049 3055 3060 3067 3074 3080 3086 3093 3099 3106 3109 3112 3114 3118
2952 2951 2949 2948 2948 2947 2947 2947 2948 2948 2951 2954 2956 2959 2965 2971 2977 2981 2985 2989 2995 2999 3001 3007 3014 3017 3020 3024 3029 3035 3040 3046 3053 3061 3067 3073 3080 3086 3094 3096 3100 3101 3107
2948 2947 2946 2946 2944 2943 2941 2943 2943 2944 2947 2950 2955 2956 2959 2965 2968 2973 2977 2981 2984 2989 2994 2998 3003 3010 3013 3017 3021 3025 3025 3032 3040 3043 3051 3057 3066 3072 3079 3085 3086 3089 3100
2943 2943 2942 2941 2941 2940 2941 2940 2941 2941 2943 2946 2949 2952 2954 2957 2961 2964 2968 2972 2976 2981 2985 2988 2994 2997 3001 3007 3011 3017 3020 3024 3027 3028 3036 3042 3050 3059 3065 3072 3075 3081 3084
2939 2939 2938 2938 2937 2940 2939 2939 2938 2937 2938 2941 2943 2946 2948 2949 2953 2956 2960 2964 2969 2973 2976 2981 2984 2989 2992 2996 3001 3006 3013 3015 3016 3020 3024 3029 3037 3044 3048 3052 3059 3063 3064
2936 2936 2935 2936 2937 2936 2935 2935 2935 2935 2935 2937 2938 2940 2942 2943 2946 2950 2953 2956 2960 2964 2968 2972 2975 2981 2984 2987 2991 2997 3001 3005 3008 3012 3016 3019 3025 3030 3034 3038 3042 3049 3051
2930 2931 2930 2930 2930 2930 2931 2931 2932 2933 2934 2933 2933 2934 2936 2937 2940 2943 2947 2949 2952 2956 2959 2961 2964 2970 2974 2979 2984 2987 2992 2995 2998 3002 3005 3008 3013 3018 3022 3025 3029 3033 3041
2925 2925 2925 2925 2925 2926 2927 2928 2929 2929 2930 2930 2929 2931 2931 2932 2934 2937 2939 2942 2944 2947 2950 2954 2957 2960 2965 2969 2973 2978 2982 2986 2989 2992 2995 2999 3003 3007 3010 3014 3017 3021 3028